• In Belarus
  • List of Countries
  • For 7 days
  • Water Temperature
  • Satellite Maps
  • Weather Map
  • Weather Widgets
  • user-avatar
    Login

    Hourly Weather Darwin

    Today, 22 November, Wednesday

    Time Temperature Precipitation Wind Pressure Humidity
    00:00 +30°C° 0 mm 1 mps 754 mmHg 69%
    01:00 +30°C° 0 mm 1 mps 754 mmHg 70%
    02:00 +30°C° 0 mm 1 mps 754 mmHg 71%
    03:00 +30°C° 0 mm 1 mps 754 mmHg 73%
    04:00 +30°C° 0 mm 1 mps 754 mmHg 73%
    05:00 +30°C° 0 mm 1 mps 754 mmHg 74%
    06:00 +30°C° 0 mm 1 mps 754 mmHg 74%
    07:00 +31°C° 0 mm 1 mps 754 mmHg 68%
    08:00 +33°C° 0 mm 1 mps 755 mmHg 61%
    09:00 +35°C° 0 mm 1 mps 755 mmHg 55%
    10:00 +37°C° 0 mm 2 mps 754 mmHg 50%
    11:00 +39°C° 0 mm 2 mps 754 mmHg 45%
    12:00 +40°C° 0 mm 2 mps 754 mmHg 40%
    13:00 +40°C° 0.1 mm 3 mps 753 mmHg 42%
    14:00 +39°C° 0.1 mm 3 mps 752 mmHg 43%
    15:00 +40°C° 0.1 mm 4 mps 752 mmHg 44%
    16:00 +38°C° 0.2 mm 3 mps 752 mmHg 47%
    17:00 +37°C° 0.2 mm 3 mps 752 mmHg 50%
    18:00 +36°C° 0.2 mm 3 mps 752 mmHg 53%
    19:00 +35°C° 0.2 mm 3 mps 753 mmHg 59%
    20:00 +34°C° 0.2 mm 3 mps 753 mmHg 64%
    21:00 +33°C° 0.2 mm 3 mps 753 mmHg 70%
    22:00 +31°C° 2.7 mm 3 mps 754 mmHg 73%
    23:00 +30°C° 2.7 mm 3 mps 754 mmHg 76%

    Tomorrow, 23 November, Thursday

    Time Temperature Precipitation Wind Pressure Humidity
    00:00 +30°C° 2.7 mm 3 mps 754 mmHg 79%
    01:00 +30°C° 0.5 mm 3 mps 754 mmHg 79%
    02:00 +30°C° 0.5 mm 2 mps 753 mmHg 79%
    03:00 +30°C° 0.5 mm 2 mps 753 mmHg 79%
    04:00 +29°C° 0 mm 2 mps 753 mmHg 79%
    05:00 +29°C° 0 mm 2 mps 754 mmHg 80%
    06:00 +29°C° 0 mm 2 mps 754 mmHg 80%
    07:00 +31°C° 0 mm 2 mps 754 mmHg 74%
    08:00 +32°C° 0 mm 2 mps 755 mmHg 67%
    09:00 +35°C° 0 mm 2 mps 755 mmHg 60%
    10:00 +36°C° 0 mm 2 mps 755 mmHg 57%
    11:00 +37°C° 0 mm 2 mps 755 mmHg 53%
    12:00 +38°C° 0 mm 2 mps 754 mmHg 49%
    13:00 +38°C° 0.1 mm 2 mps 754 mmHg 49%
    14:00 +37°C° 0.1 mm 3 mps 753 mmHg 50%
    15:00 +37°C° 0.1 mm 3 mps 753 mmHg 50%
    16:00 +36°C° 0.2 mm 3 mps 753 mmHg 55%
    17:00 +35°C° 0.2 mm 3 mps 753 mmHg 60%
    18:00 +34°C° 0.2 mm 3 mps 753 mmHg 64%
    19:00 +33°C° 0 mm 3 mps 753 mmHg 67%
    20:00 +33°C° 0 mm 3 mps 754 mmHg 70%
    21:00 +31°C° 0 mm 3 mps 754 mmHg 72%
    22:00 +31°C° 0.9 mm 3 mps 754 mmHg 76%
    23:00 +30°C° 0.9 mm 3 mps 755 mmHg 79%

    Day after tomorrow, 24 November, Friday

    Time Temperature Precipitation Wind Pressure Humidity
    00:00 +30°C° 0.9 mm 2 mps 755 mmHg 83%
    01:00 +30°C° 1.5 mm 2 mps 755 mmHg 83%
    02:00 +29°C° 1.5 mm 3 mps 754 mmHg 83%
    03:00 +29°C° 1.5 mm 3 mps 754 mmHg 83%
    04:00 +29°C° 0.5 mm 2 mps 755 mmHg 84%
    05:00 +29°C° 0.5 mm 2 mps 755 mmHg 84%
    06:00 +29°C° 0.5 mm 2 mps 755 mmHg 84%
    07:00 +30°C° 0 mm 1 mps 755 mmHg 79%
    08:00 +31°C° 0 mm 1 mps 756 mmHg 74%
    09:00 +30°C° 0 mm 0 mps 756 mmHg 68%
    10:00 +34°C° 0 mm 1 mps 756 mmHg 61%
    11:00 +36°C° 0 mm 2 mps 755 mmHg 54%
    12:00 +38°C° 0 mm 2 mps 755 mmHg 47%
    13:00 +38°C° 0 mm 3 mps 755 mmHg 45%
    14:00 +39°C° 0 mm 3 mps 754 mmHg 44%
    15:00 +40°C° 0 mm 4 mps 753 mmHg 43%
    16:00 +38°C° 0.1 mm 4 mps 754 mmHg 48%
    17:00 +36°C° 0.1 mm 3 mps 754 mmHg 53%
    18:00 +35°C° 0.1 mm 3 mps 754 mmHg 58%
    19:00 +34°C° 0.8 mm 3 mps 755 mmHg 62%
    20:00 +33°C° 0.8 mm 3 mps 755 mmHg 67%
    21:00 +31°C° 0.8 mm 3 mps 756 mmHg 71%
    22:00 +31°C° 0.5 mm 3 mps 756 mmHg 74%
    23:00 +31°C° 0.5 mm 2 mps 756 mmHg 77%

    25 November, Saturday

    Time Temperature Precipitation Wind Pressure Humidity
    00:00 +30°C° 0.5 mm 2 mps 756 mmHg 80%
    01:00 +30°C° 0.1 mm 2 mps 755 mmHg 81%
    02:00 +30°C° 0.1 mm 2 mps 755 mmHg 82%
    03:00 +30°C° 0.1 mm 2 mps 754 mmHg 84%
    04:00 +30°C° 0.6 mm 2 mps 755 mmHg 85%
    05:00 +29°C° 0.6 mm 1 mps 755 mmHg 85%
    06:00 +29°C° 0.6 mm 1 mps 756 mmHg 86%
    07:00 +31°C° 0.4 mm 1 mps 756 mmHg 80%
    08:00 +32°C° 0.4 mm 2 mps 756 mmHg 73%
    09:00 +34°C° 0.4 mm 2 mps 757 mmHg 67%
    10:00 +35°C° 0.2 mm 2 mps 756 mmHg 62%
    11:00 +36°C° 0.2 mm 2 mps 756 mmHg 57%
    12:00 +37°C° 0.2 mm 2 mps 756 mmHg 53%
    13:00 +37°C° 0.1 mm 2 mps 755 mmHg 52%
    14:00 +37°C° 0.1 mm 3 mps 754 mmHg 52%
    15:00 +37°C° 0.1 mm 3 mps 754 mmHg 52%
    16:00 +36°C° 0.5 mm 3 mps 754 mmHg 55%
    17:00 +35°C° 0.5 mm 2 mps 754 mmHg 59%
    18:00 +34°C° 0.5 mm 2 mps 754 mmHg 62%
    19:00 +33°C° 0 mm 3 mps 755 mmHg 65%
    20:00 +33°C° 0 mm 3 mps 755 mmHg 68%
    21:00 +31°C° 0 mm 3 mps 755 mmHg 70%
    22:00 +30°C° 0.8 mm 3 mps 755 mmHg 75%
    23:00 +30°C° 0.8 mm 3 mps 755 mmHg 79%

    26 November, Sunday

    Time Temperature Precipitation Wind Pressure Humidity
    00:00 +29°C° 0.8 mm 2 mps 755 mmHg 84%
    01:00 +29°C° 0.6 mm 2 mps 755 mmHg 85%
    02:00 +29°C° 0.6 mm 1 mps 755 mmHg 85%
    03:00 +29°C° 0.6 mm 1 mps 755 mmHg 86%
    04:00 +28°C° 1.8 mm 1 mps 755 mmHg 85%
    05:00 +28°C° 1.8 mm 1 mps 756 mmHg 85%
    06:00 +28°C° 1.8 mm 1 mps 756 mmHg 85%
    07:00 +30°C° 0.2 mm 1 mps 756 mmHg 77%
    08:00 +31°C° 0.2 mm 1 mps 756 mmHg 69%
    09:00 +33°C° 0.2 mm 1 mps 756 mmHg 61%
    10:00 +35°C° 0 mm 2 mps 756 mmHg 56%
    11:00 +36°C° 0 mm 2 mps 755 mmHg 51%
    12:00 +37°C° 0 mm 2 mps 755 mmHg 46%
    13:00 +38°C° 0 mm 3 mps 754 mmHg 45%
    14:00 +38°C° 0 mm 3 mps 754 mmHg 45%
    15:00 +38°C° 0 mm 3 mps 754 mmHg 44%
    16:00 +37°C° 0.2 mm 3 mps 754 mmHg 49%
    17:00 +35°C° 0.2 mm 3 mps 754 mmHg 54%
    18:00 +34°C° 0.2 mm 2 mps 754 mmHg 59%
    19:00 +32°C° 0.6 mm 2 mps 755 mmHg 64%
    20:00 +31°C° 0.6 mm 2 mps 755 mmHg 68%
    21:00 +30°C° 0.6 mm 2 mps 755 mmHg 73%
    22:00 +30°C° 0 mm 2 mps 755 mmHg 74%
    23:00 +30°C° 0 mm 2 mps 755 mmHg 76%

    27 November, Monday

    Time Temperature Precipitation Wind Pressure Humidity
    00:00 +30°C° 0 mm 2 mps 754 mmHg 77%
    01:00 +29°C° 0.1 mm 2 mps 754 mmHg 78%
    02:00 +29°C° 0.1 mm 2 mps 754 mmHg 79%
    03:00 +29°C° 0.1 mm 2 mps 754 mmHg 80%
    04:00 +29°C° 0.8 mm 2 mps 754 mmHg 82%
    05:00 +29°C° 0.8 mm 2 mps 755 mmHg 83%
    06:00 +28°C° 0.8 mm 2 mps 755 mmHg 84%
    07:00 +30°C° 0.4 mm 2 mps 755 mmHg 76%
    08:00 +32°C° 0.4 mm 1 mps 756 mmHg 68%
    09:00 +34°C° 0.4 mm 1 mps 756 mmHg 60%
    10:00 +35°C° 0 mm 1 mps 756 mmHg 56%
    11:00 +37°C° 0 mm 2 mps 755 mmHg 51%
    12:00 +38°C° 0 mm 2 mps 755 mmHg 47%
    13:00 +37°C° 0.8 mm 2 mps 754 mmHg 48%
    14:00 +37°C° 0.8 mm 2 mps 753 mmHg 50%
    15:00 +36°C° 0.8 mm 2 mps 753 mmHg 51%
    16:00 +36°C° 0.7 mm 2 mps 753 mmHg 54%
    17:00 +34°C° 0.7 mm 1 mps 753 mmHg 58%
    18:00 +33°C° 0.7 mm 1 mps 753 mmHg 61%
    19:00 +32°C° 0.1 mm 2 mps 754 mmHg 64%
    20:00 +32°C° 0.1 mm 2 mps 754 mmHg 67%
    21:00 +31°C° 0.1 mm 2 mps 755 mmHg 70%
    22:00 +30°C° 0.1 mm 2 mps 754 mmHg 72%
    23:00 +30°C° 0.1 mm 3 mps 754 mmHg 74%
    Show more